THA574 VTBS-VLVT

Flight info

Callsign THA574
Flight time 1h 4m
Altitude 33000
Route ALBOS1G ALBOS R474 VTN DCT VALEE VALEE1B
Aircraft A320/M-SDE3FGHIRWY/LB1

Departure

Time 2026-04-25 07:03
Airport Suvarnabhumi Airport (VTBS)

Arrival

Time 2026-04-25 08:08
Airport Wattay International Airport (VLVT)
Time Latitude Longitude Altitude Speed Heading
2026-04-25 06:24 13.68373 100.74576 13 ft 0 kts 194°
2026-04-25 06:47 13.68384 100.74579 13 ft 4 kts 191°
2026-04-25 06:48 13.68411 100.74583 16 ft 4 kts 182°
2026-04-25 06:48 13.68438 100.74582 16 ft 4 kts 170°
2026-04-25 06:48 13.68464 100.74575 15 ft 4 kts 154°
2026-04-25 06:48 13.68486 100.74559 13 ft 4 kts 127°
2026-04-25 06:49 13.68494 100.74544 15 ft 0 kts 104°
2026-04-25 06:55 13.68494 100.74547 13 ft 1 kts 104°
2026-04-25 06:55 13.68489 100.74565 13 ft 3 kts 104°
2026-04-25 06:55 13.68481 100.74596 13 ft 5 kts 104°
2026-04-25 06:56 13.68485 100.74637 13 ft 7 kts 53°
2026-04-25 06:56 13.68532 100.74655 13 ft 8 kts
2026-04-25 06:56 13.68575 100.74619 13 ft 9 kts 287°
2026-04-25 06:56 13.68593 100.74546 14 ft 12 kts 284°
2026-04-25 06:57 13.68615 100.74459 13 ft 14 kts 284°
2026-04-25 06:57 13.68641 100.74356 13 ft 16 kts 284°
2026-04-25 06:57 13.68669 100.74246 13 ft 15 kts 284°
2026-04-25 06:57 13.68693 100.74147 15 ft 14 kts 284°
2026-04-25 06:58 13.68735 100.74086 14 ft 11 kts 347°
2026-04-25 06:58 13.68818 100.74102 14 ft 13 kts 14°
2026-04-25 06:58 13.68912 100.74127 14 ft 15 kts 14°
2026-04-25 06:58 13.69020 100.74155 13 ft 17 kts 14°
2026-04-25 06:59 13.69142 100.74187 15 ft 19 kts 14°
2026-04-25 06:59 13.69277 100.74223 13 ft 21 kts 14°
2026-04-25 06:59 13.69425 100.74262 15 ft 23 kts 14°
2026-04-25 06:59 13.69586 100.74303 13 ft 25 kts 14°
2026-04-25 07:00 13.69755 100.74349 13 ft 23 kts 15°
2026-04-25 07:00 13.69858 100.74376 13 ft 12 kts 14°
2026-04-25 07:00 13.69944 100.74398 13 ft 13 kts 14°
2026-04-25 07:00 13.70039 100.74423 14 ft 15 kts 14°
2026-04-25 07:01 13.70145 100.74451 13 ft 15 kts 15°
2026-04-25 07:01 13.70225 100.74433 13 ft 14 kts 292°
2026-04-25 07:01 13.70249 100.74338 15 ft 12 kts 284°
2026-04-25 07:01 13.70239 100.74283 16 ft 9 kts 210°
2026-04-25 07:02 13.70174 100.74268 15 ft 11 kts 194°
2026-04-25 07:02 13.70040 100.74232 14 ft 46 kts 194°
2026-04-25 07:02 13.69513 100.74094 10 ft 107 kts 194°
2026-04-25 07:02 13.68632 100.73862 16 ft 151 kts 194°
2026-04-25 07:03 13.67513 100.73553 250 ft 170 kts 195°
2026-04-25 07:03 13.66377 100.73241 898 ft 173 kts 196°
2026-04-25 07:03 13.65204 100.72880 1406 ft 175 kts 195°
2026-04-25 07:03 13.64014 100.72538 1824 ft 181 kts 194°
2026-04-25 07:04 13.62762 100.72214 2217 ft 189 kts 193°
2026-04-25 07:04 13.61451 100.71896 2615 ft 201 kts 192°
2026-04-25 07:04 13.60009 100.71546 2890 ft 225 kts 192°
2026-04-25 07:04 13.58414 100.71149 3213 ft 248 kts 192°
2026-04-25 07:05 13.56658 100.70703 3642 ft 267 kts 193°
2026-04-25 07:05 13.54911 100.69995 4353 ft 277 kts 213°
2026-04-25 07:05 13.53640 100.68496 5097 ft 285 kts 244°
2026-04-25 07:05 13.53248 100.66496 5858 ft 291 kts 275°
2026-04-25 07:06 13.53669 100.64460 6661 ft 292 kts 284°
2026-04-25 07:06 13.54192 100.62425 7395 ft 297 kts 285°
2026-04-25 07:06 13.54899 100.60458 8101 ft 299 kts 301°
2026-04-25 07:06 13.56224 100.58786 8869 ft 299 kts 321°
2026-04-25 07:07 13.57975 100.57694 9588 ft 300 kts 342°
2026-04-25 07:07 13.60011 100.57257 10132 ft 306 kts 360°
2026-04-25 07:07 13.62249 100.57281 10288 ft 328 kts
2026-04-25 07:07 13.64566 100.57549 10620 ft 340 kts 15°
2026-04-25 07:08 13.66771 100.58352 11158 ft 343 kts 27°
2026-04-25 07:08 13.68807 100.59649 11742 ft 346 kts 39°
2026-04-25 07:08 13.70667 100.61229 12308 ft 350 kts 40°
2026-04-25 07:08 13.72550 100.62837 12862 ft 354 kts 40°
2026-04-25 07:09 13.74459 100.64469 13404 ft 358 kts 40°
2026-04-25 07:09 13.76387 100.66117 13906 ft 362 kts 40°
2026-04-25 07:09 13.78333 100.67783 14397 ft 366 kts 39°
2026-04-25 07:09 13.80295 100.69463 14869 ft 369 kts 39°
2026-04-25 07:10 13.82278 100.71155 15366 ft 372 kts 39°
2026-04-25 07:10 13.84405 100.72682 15842 ft 375 kts 28°
2026-04-25 07:10 13.86798 100.73756 16313 ft 377 kts 17°
2026-04-25 07:10 13.89339 100.74450 16791 ft 379 kts 13°
2026-04-25 07:11 13.91906 100.75117 17282 ft 382 kts 13°
2026-04-25 07:11 13.94497 100.75789 17748 ft 385 kts 13°
2026-04-25 07:11 13.97104 100.76465 18209 ft 388 kts 13°
2026-04-25 07:11 13.99729 100.77145 18639 ft 390 kts 13°
2026-04-25 07:12 14.02364 100.77825 19067 ft 392 kts 13°
2026-04-25 07:12 14.07675 100.79201 19920 ft 396 kts 13°
2026-04-25 07:12 14.10349 100.79895 20339 ft 398 kts 13°
2026-04-25 07:13 14.13041 100.80595 20762 ft 400 kts 13°
2026-04-25 07:13 14.15741 100.81299 21170 ft 402 kts 13°
2026-04-25 07:13 14.18464 100.82010 21564 ft 404 kts 14°
2026-04-25 07:13 14.21199 100.82725 21974 ft 406 kts 13°
2026-04-25 07:14 14.23945 100.83441 22373 ft 408 kts 13°
2026-04-25 07:14 14.26711 100.84161 22757 ft 411 kts 13°
2026-04-25 07:14 14.29488 100.84883 23147 ft 413 kts 13°
2026-04-25 07:14 14.32263 100.85665 23508 ft 415 kts 19°
2026-04-25 07:15 14.34965 100.86744 23799 ft 418 kts 21°
2026-04-25 07:15 14.37676 100.87850 24119 ft 420 kts 20°
2026-04-25 07:15 14.40399 100.88958 24440 ft 421 kts 20°
2026-04-25 07:15 14.43132 100.90069 24751 ft 423 kts 20°
2026-04-25 07:16 14.45877 100.91188 25065 ft 425 kts 20°
2026-04-25 07:16 14.48637 100.92312 25375 ft 427 kts 20°
2026-04-25 07:16 14.51402 100.93437 25685 ft 429 kts 20°
2026-04-25 07:16 14.54180 100.94565 25996 ft 430 kts 20°
2026-04-25 07:17 14.56974 100.95699 26297 ft 432 kts 20°
2026-04-25 07:17 14.59782 100.96836 26603 ft 434 kts 20°
2026-04-25 07:17 14.62599 100.97976 26943 ft 437 kts 20°
2026-04-25 07:17 14.65396 100.99114 27253 ft 438 kts 20°
2026-04-25 07:18 14.68238 101.00273 27542 ft 440 kts 20°
2026-04-25 07:18 14.71129 101.01454 27814 ft 442 kts 20°
2026-04-25 07:18 14.73957 101.02610 28098 ft 444 kts 20°
2026-04-25 07:18 14.76813 101.03857 28396 ft 447 kts 22°
2026-04-25 07:19 14.79631 101.05217 28704 ft 449 kts 24°
2026-04-25 07:19 14.82438 101.06657 29010 ft 451 kts 25°
2026-04-25 07:19 14.85241 101.08133 29314 ft 453 kts 25°
2026-04-25 07:19 14.88054 101.09614 29613 ft 455 kts 25°
2026-04-25 07:20 14.90889 101.11089 29917 ft 457 kts 24°
2026-04-25 07:20 14.93743 101.12551 30197 ft 459 kts 24°
2026-04-25 07:20 14.96614 101.14003 30476 ft 460 kts 24°
2026-04-25 07:20 14.99494 101.15447 30835 ft 459 kts 23°
2026-04-25 07:21 15.02365 101.16886 31172 ft 458 kts 23°
2026-04-25 07:21 15.05226 101.18323 31516 ft 458 kts 23°
2026-04-25 07:21 15.08094 101.19763 31859 ft 457 kts 23°
2026-04-25 07:21 15.10949 101.21200 32210 ft 457 kts 23°
2026-04-25 07:22 15.13807 101.22641 32570 ft 456 kts 23°
2026-04-25 07:22 15.16659 101.24082 32849 ft 457 kts 23°
2026-04-25 07:22 15.21384 101.26472 32919 ft 452 kts 23°
2026-04-25 07:23 15.27027 101.29326 32912 ft 450 kts 23°
2026-04-25 07:23 15.32653 101.32165 32922 ft 449 kts 22°
2026-04-25 07:24 15.38259 101.35005 32919 ft 448 kts 22°
2026-04-25 07:24 15.43857 101.37842 32921 ft 448 kts 22°
2026-04-25 07:25 15.49456 101.40683 32920 ft 448 kts 22°
2026-04-25 07:25 15.55055 101.43526 32919 ft 448 kts 22°
2026-04-25 07:26 15.60656 101.46364 32929 ft 448 kts 22°
2026-04-25 07:26 15.66256 101.49200 32931 ft 448 kts 23°
2026-04-25 07:27 15.71854 101.52048 32934 ft 448 kts 22°
2026-04-25 07:27 15.77455 101.54895 32933 ft 448 kts 22°
2026-04-25 07:28 15.83047 101.57745 32932 ft 448 kts 22°
2026-04-25 07:28 15.88647 101.60592 32937 ft 448 kts 22°
2026-04-25 07:29 15.94251 101.63439 32937 ft 448 kts 22°
2026-04-25 07:29 15.99845 101.66295 32938 ft 448 kts 22°
2026-04-25 07:30 16.05448 101.69158 32953 ft 449 kts 22°
2026-04-25 07:30 16.11021 101.71998 32946 ft 450 kts 22°
2026-04-25 07:31 16.16638 101.74871 32950 ft 450 kts 22°
2026-04-25 07:31 16.22259 101.77744 32956 ft 450 kts 22°
2026-04-25 07:32 16.27879 101.80614 32959 ft 450 kts 22°
2026-04-25 07:32 16.33494 101.83483 32957 ft 450 kts 22°
2026-04-25 07:33 16.39118 101.86362 32965 ft 450 kts 22°
2026-04-25 07:33 16.44742 101.89242 32960 ft 451 kts 22°
2026-04-25 07:34 16.50373 101.92130 32957 ft 451 kts 22°
2026-04-25 07:34 16.55972 101.95011 32733 ft 443 kts 22°
2026-04-25 07:35 16.58725 101.96429 32486 ft 439 kts 22°
2026-04-25 07:35 16.61459 101.97835 32242 ft 437 kts 22°
2026-04-25 07:35 16.64202 101.99171 31996 ft 432 kts 17°
2026-04-25 07:35 16.67006 102.00285 31759 ft 430 kts 17°
2026-04-25 07:36 16.69796 102.01387 31533 ft 428 kts 17°
2026-04-25 07:36 16.72573 102.02488 31303 ft 427 kts 17°
2026-04-25 07:36 16.75346 102.03588 31064 ft 425 kts 17°
2026-04-25 07:36 16.78102 102.04686 30834 ft 423 kts 17°
2026-04-25 07:37 16.80845 102.05780 30603 ft 421 kts 17°
2026-04-25 07:37 16.83575 102.06869 30379 ft 419 kts 17°
2026-04-25 07:37 16.86295 102.07952 30153 ft 417 kts 17°
2026-04-25 07:37 16.89001 102.09029 29909 ft 415 kts 17°
2026-04-25 07:38 16.91689 102.10100 29642 ft 414 kts 17°
2026-04-25 07:38 16.94378 102.11171 29360 ft 412 kts 17°
2026-04-25 07:38 16.97050 102.12238 29121 ft 411 kts 17°
2026-04-25 07:38 16.99678 102.13286 28867 ft 409 kts 17°
2026-04-25 07:39 17.02331 102.14346 28602 ft 408 kts 18°
2026-04-25 07:39 17.04978 102.15404 28314 ft 406 kts 17°
2026-04-25 07:39 17.07603 102.16451 27931 ft 402 kts 17°
2026-04-25 07:39 17.10205 102.17492 27561 ft 398 kts 17°
2026-04-25 07:40 17.12783 102.18523 27196 ft 395 kts 17°
2026-04-25 07:40 17.15337 102.19545 26828 ft 392 kts 17°
2026-04-25 07:40 17.17872 102.20562 26469 ft 388 kts 17°
2026-04-25 07:40 17.20383 102.21568 26115 ft 385 kts 17°
2026-04-25 07:41 17.22877 102.22565 25764 ft 382 kts 17°
2026-04-25 07:41 17.25350 102.23552 25414 ft 379 kts 17°
2026-04-25 07:41 17.27810 102.24533 25073 ft 377 kts 17°
2026-04-25 07:41 17.30257 102.25511 24739 ft 376 kts 17°
2026-04-25 07:42 17.32696 102.26485 24406 ft 374 kts 18°
2026-04-25 07:42 17.35124 102.27458 24077 ft 373 kts 18°
2026-04-25 07:42 17.37543 102.28427 23757 ft 371 kts 17°
2026-04-25 07:42 17.39953 102.29391 23408 ft 370 kts 17°
2026-04-25 07:43 17.42350 102.30353 23015 ft 368 kts 18°
2026-04-25 07:43 17.44730 102.31312 22635 ft 366 kts 18°
2026-04-25 07:43 17.47096 102.32267 22261 ft 363 kts 18°
2026-04-25 07:43 17.49447 102.33214 21888 ft 361 kts 18°
2026-04-25 07:44 17.51785 102.34151 21504 ft 359 kts 18°
2026-04-25 07:44 17.54111 102.35080 21144 ft 356 kts 18°
2026-04-25 07:44 17.56417 102.36003 20778 ft 354 kts 18°
2026-04-25 07:44 17.58718 102.36926 20424 ft 352 kts 18°
2026-04-25 07:45 17.60998 102.37844 20076 ft 350 kts 18°
2026-04-25 07:45 17.63265 102.38762 19727 ft 349 kts 18°
2026-04-25 07:45 17.65522 102.39674 19374 ft 347 kts 18°
2026-04-25 07:45 17.67769 102.40580 19034 ft 345 kts 18°
2026-04-25 07:46 17.70000 102.41478 18706 ft 343 kts 19°
2026-04-25 07:46 17.72225 102.42373 18358 ft 341 kts 19°
2026-04-25 07:46 17.74434 102.43260 18006 ft 339 kts 19°
2026-04-25 07:46 17.76630 102.44145 17621 ft 337 kts 20°
2026-04-25 07:47 17.78625 102.45426 17243 ft 339 kts 42°
2026-04-25 07:47 17.80008 102.47407 16866 ft 339 kts 65°
2026-04-25 07:47 17.80672 102.49776 16498 ft 338 kts 77°
2026-04-25 07:47 17.81130 102.52191 16133 ft 337 kts 78°
2026-04-25 07:48 17.81564 102.54574 15775 ft 336 kts 78°
2026-04-25 07:48 17.81999 102.56974 15418 ft 335 kts 79°
2026-04-25 07:48 17.82435 102.59372 15070 ft 333 kts 78°
2026-04-25 07:48 17.82868 102.61755 14726 ft 332 kts 78°
2026-04-25 07:49 17.83298 102.64130 14378 ft 331 kts 79°
2026-04-25 07:49 17.83729 102.66500 14039 ft 330 kts 78°
2026-04-25 07:49 17.84162 102.68859 13696 ft 328 kts 78°
2026-04-25 07:49 17.84592 102.71205 13304 ft 327 kts 78°
2026-04-25 07:50 17.85022 102.73544 12929 ft 326 kts 78°
2026-04-25 07:50 17.85454 102.75874 12562 ft 324 kts 78°
2026-04-25 07:50 17.85883 102.78190 12196 ft 323 kts 79°
2026-04-25 07:50 17.86343 102.80492 11830 ft 321 kts 73°
2026-04-25 07:51 17.87308 102.82578 11469 ft 318 kts 52°
2026-04-25 07:51 17.88894 102.84164 11115 ft 315 kts 32°
2026-04-25 07:51 17.90901 102.85045 10759 ft 313 kts 11°
2026-04-25 07:51 17.93058 102.85126 10416 ft 311 kts 351°
2026-04-25 07:52 17.95141 102.84585 10172 ft 306 kts 345°
2026-04-25 07:52 17.97174 102.84007 9938 ft 301 kts 345°
2026-04-25 07:52 17.99181 102.83441 9710 ft 296 kts 346°
2026-04-25 07:52 18.01153 102.82887 9459 ft 291 kts 346°
2026-04-25 07:53 18.03085 102.82299 9201 ft 287 kts 343°
2026-04-25 07:53 18.04966 102.81627 8951 ft 284 kts 341°
2026-04-25 07:53 18.06792 102.80868 8703 ft 281 kts 338°
2026-04-25 07:53 18.08559 102.80019 8456 ft 279 kts 334°
2026-04-25 07:54 18.10275 102.79084 8210 ft 277 kts 332°
2026-04-25 07:54 18.11946 102.78067 7971 ft 277 kts 329°
2026-04-25 07:54 18.13565 102.76978 7682 ft 276 kts 327°
2026-04-25 07:54 18.15133 102.75820 7393 ft 275 kts 325°
2026-04-25 07:55 18.16649 102.74589 7113 ft 275 kts 322°
2026-04-25 07:55 18.18087 102.73273 6833 ft 274 kts 318°
2026-04-25 07:55 18.19426 102.71846 6553 ft 274 kts 314°
2026-04-25 07:55 18.20644 102.70342 6277 ft 273 kts 309°
2026-04-25 07:56 18.21758 102.68731 5986 ft 272 kts 304°
2026-04-25 07:56 18.22753 102.67042 5693 ft 271 kts 300°
2026-04-25 07:56 18.23627 102.65285 5395 ft 271 kts 295°
2026-04-25 07:56 18.24368 102.63474 5112 ft 270 kts 291°
2026-04-25 07:57 18.24977 102.61609 4824 ft 269 kts 286°
2026-04-25 07:57 18.25450 102.59712 4531 ft 268 kts 282°
2026-04-25 07:57 18.25786 102.57786 4236 ft 267 kts 277°
2026-04-25 07:57 18.25983 102.55845 3954 ft 266 kts 273°
2026-04-25 07:58 18.26042 102.53910 3724 ft 261 kts 268°
2026-04-25 07:58 18.25972 102.52044 3514 ft 251 kts 264°
2026-04-25 07:58 18.25781 102.50228 3231 ft 249 kts 259°
2026-04-25 07:58 18.25479 102.48454 3025 ft 242 kts 256°
2026-04-25 07:59 18.25083 102.46783 3000 ft 227 kts 252°
2026-04-25 07:59 18.24620 102.45252 2999 ft 213 kts 248°
2026-04-25 07:59 18.24087 102.43812 3007 ft 210 kts 244°
2026-04-25 07:59 18.23485 102.42430 3009 ft 206 kts 242°
2026-04-25 08:00 18.22813 102.41091 2998 ft 208 kts 239°
2026-04-25 08:00 18.22066 102.39789 3003 ft 210 kts 233°
2026-04-25 08:00 18.21094 102.38667 3007 ft 206 kts 212°
2026-04-25 08:00 18.19843 102.37956 3010 ft 204 kts 195°
2026-04-25 08:01 18.18502 102.37718 3022 ft 186 kts 178°
2026-04-25 08:01 18.17292 102.37894 3005 ft 167 kts 160°
2026-04-25 08:01 18.16281 102.38366 2998 ft 153 kts 146°
2026-04-25 08:01 18.15456 102.39070 3001 ft 152 kts 135°
2026-04-25 08:02 18.14707 102.39847 3006 ft 151 kts 135°
2026-04-25 08:02 18.13961 102.40623 3006 ft 150 kts 135°
2026-04-25 08:02 18.13211 102.41402 3012 ft 152 kts 136°
2026-04-25 08:02 18.12463 102.42180 3015 ft 151 kts 135°
2026-04-25 08:03 18.11719 102.42953 3002 ft 149 kts 136°
2026-04-25 08:03 18.10971 102.43729 3012 ft 153 kts 136°
2026-04-25 08:03 18.10220 102.44509 3006 ft 153 kts 136°
2026-04-25 08:03 18.09465 102.45293 3002 ft 154 kts 136°
2026-04-25 08:04 18.08703 102.46084 2897 ft 153 kts 135°
2026-04-25 08:04 18.07951 102.46864 2744 ft 150 kts 136°
2026-04-25 08:04 18.07219 102.47625 2547 ft 147 kts 135°
2026-04-25 08:04 18.06511 102.48360 2370 ft 142 kts 136°
2026-04-25 08:05 18.05807 102.49090 2189 ft 141 kts 135°
2026-04-25 08:05 18.05105 102.49818 2018 ft 143 kts 136°
2026-04-25 08:05 18.04405 102.50545 1831 ft 139 kts 137°
2026-04-25 08:05 18.03706 102.51270 1653 ft 140 kts 136°
2026-04-25 08:06 18.03009 102.51993 1463 ft 141 kts 135°
2026-04-25 08:06 18.02328 102.52699 1307 ft 141 kts 138°
2026-04-25 08:06 18.01620 102.53434 1102 ft 139 kts 137°
2026-04-25 08:06 18.00934 102.54156 968 ft 143 kts 138°
2026-04-25 08:07 18.00225 102.54880 749 ft 141 kts 137°
2026-04-25 08:07 17.99535 102.55598 597 ft 141 kts 137°
2026-04-25 08:07 17.98874 102.56277 564 ft 116 kts 134°
2026-04-25 08:07 17.98415 102.56754 566 ft 76 kts 136°
2026-04-25 08:08 17.98135 102.57050 563 ft 49 kts 136°
2026-04-25 08:08 17.97931 102.57253 563 ft 24 kts 140°
2026-04-25 08:08 17.97808 102.57284 562 ft 16 kts 180°
2026-04-25 08:08 17.97708 102.57281 567 ft 13 kts 184°
2026-04-25 08:09 17.97629 102.57276 569 ft 8 kts 184°
2026-04-25 08:09 17.97589 102.57233 565 ft 10 kts 272°
2026-04-25 08:09 17.97635 102.57172 573 ft 12 kts 315°
2026-04-25 08:09 17.97697 102.57107 570 ft 14 kts 315°
2026-04-25 08:10 17.97755 102.57045 568 ft 11 kts 311°
2026-04-25 08:10 17.97784 102.56986 563 ft 10 kts 260°
2026-04-25 08:10 17.97760 102.56953 563 ft 3 kts 227°
2026-04-25 08:10 17.97739 102.56939 565 ft 5 kts 202°
2026-04-25 08:11 17.97703 102.56939 569 ft 4 kts 168°
2026-04-25 08:11 17.97674 102.56931 579 ft 5 kts 222°
2026-04-25 08:11 17.97656 102.56907 565 ft 3 kts 228°
2026-04-25 08:11 17.97644 102.56894 565 ft 1 kts 226°
2026-04-25 08:12 17.97639 102.56888 565 ft 2 kts 225°
2026-04-25 08:12 17.97633 102.56882 572 ft 1 kts 225°
2026-04-25 08:12 17.97630 102.56879 571 ft 0 kts 225°